Regional Weather Roundup
Issued by NWS

Home | Current Version | Previous Version | Graphics & Text | Print | Product List | Glossary On
Versions: 1 2 3 4 5 6 7 8 9 10 11 12 13 14 15 16 17 18 19 20 21 22 23 24 25 26 27 28 29 30 31 32 33 34 35 36 37 38 39 40 41 42 43 44 45 46 47 48 49 50
000
ASUS43 KOAX 171102
RWRNE

WEATHER ROUNDUP FOR NEBRASKA
NATIONAL WEATHER SERVICE OMAHA NE
600 AM CDT WED SEP 17 2014

NOTES: SATELLITE DATA IS BEING USED TO AUGMENT CLOUD COVER ABOVE
       12000 FEET.
       "FAIR" INDICATES FEW OR NO CLOUDS BELOW 12,000 FEET WITH NO
       SIGNIFICANT WEATHER AND/OR OBSTRUCTIONS TO VISIBILITY.

  * THESE STATIONS DO NOT REPORT WEATHER SUCH AS RAIN...SNOW OR FOG.

NEZ001>004-019>022-054>056-171200-
NEBRASKA PANHANDLE

CITY           SKY/WX    TMP DP  RH WIND       PRES   REMARKS
SCOTTSBLUFF    PTCLDY    51  47  86 N6        29.97F
ALLIANCE       PTCLDY    45  43  93 NW5       29.97F
CHADRON        PTCLDY    49  45  86 CALM      29.96S
KIMBALL        CLEAR     52  40  64 W7        30.02S
SIDNEY         CLEAR     50  44  80 W6        30.00F
$$

NEZ057>060-069>072-079>082-171200-
SOUTHWEST NEBRASKA

CITY           SKY/WX    TMP DP  RH WIND       PRES   REMARKS
NORTH PLATTE   FOG       47  46  97 CALM      29.96R VSB 1/4
IMPERIAL       CLEAR     49  48  97 W3        29.95F
LEXINGTON      CLEAR     46  45  97 W5        29.94F FOG
MCCOOK         FOG       50  49  96 NW5       29.94F VSB 1
OGALLALA       FOG       49  49  99 CALM      29.96S VSB 3/4
$$

NEZ005>010-023>029-035>040-094-171200-
NORTH CENTRAL NEBRASKA

CITY           SKY/WX    TMP DP  RH WIND       PRES   REMARKS
VALENTINE      CLEAR     45  45 100 CALM      29.92F FOG
BROKEN BOW     FOG       46  45  96 CALM      29.94S VSB 1/4
O`NEILL        CLEAR     50  50 100 S5        29.92S FOG
ORD            PTCLDY    45  44  97 CALM      29.93S
THEDFORD         N/A     50  49  98 CALM      29.96S VSB 3/4
$$

NEZ041-046>049-061>064-073>077-083>087-171200-
SOUTH CENTRAL NEBRASKA

CITY           SKY/WX    TMP DP  RH WIND       PRES   REMARKS
GRAND ISLAND   CLEAR     50  47  89 CALM      29.93F
HASTINGS       CLEAR     50  47  89 N3        29.92S
HEBRON         CLOUDY    58  55  89 CALM      29.90F
HOLDREGE       CLEAR     47  46  95 CALM      29.93S
KEARNEY *      CLEAR     48  46  93 NW3       29.94S
YORK           CLEAR     50  50 100 NE3       29.93S
$$

NEZ011>018-030>034-042>045-171200-
NORTHEAST NEBRASKA

CITY           SKY/WX    TMP DP  RH WIND       PRES   REMARKS
NORFOLK        FOG       47  46  97 CALM      29.93F VSB 1/2
ALBION         CLEAR     46  44  93 CALM      29.94S
BLAIR          PTCLDY    58  53  83 SE6       29.93F
COLUMBUS *     CLEAR     48  46  93 CALM      29.94S
TEKAMAH        PTCLDY    53  51  93 CALM      29.93F
WAYNE          MOCLDY    49  48  97 CALM      29.93F
$$

NEZ050>053-065>068-078-088>093-171200-
SOUTHEAST NEBRASKA

CITY           SKY/WX    TMP DP  RH WIND       PRES   REMARKS
LINCOLN        CLEAR     56  52  86 E3        29.92F
OMAHA EPPLEY   PTCLDY    59  53  80 SE3       29.94S
BEATRICE       CLOUDY    61  58  90 SE3       29.91F
FALLS CITY     CLOUDY    62  58  86 E5        29.91F
NEBRASKA CITY  CLEAR     59  52  78 CALM      29.93S
PLATTSMOUTH    PTCLDY    57  53  86 E3        29.93S
$$

NEZ044-045-051>053-067-171200-
OMAHA AREA

CITY           SKY/WX    TMP DP  RH WIND       PRES   REMARKS
OMAHA EPPLEY   PTCLDY    59  53  80 SE3       29.94S
BLAIR          PTCLDY    58  53  83 SE6       29.93F
MILLARD        CLEAR     57  54  90 CALM      29.92F
OFFUTT AFB     PTCLDY    59  58  99 E3        29.93S
PLATTSMOUTH    PTCLDY    57  53  86 E3        29.93S
WAHOO          FAIR      54  51  89 CALM      29.93S
$$


USA.gov is the U.S. government's official web portal to all federal, state and local government web resources and services.